Weather History for Greenville, AL

Change the Weather History Date:

Friday, January 6, 2012

  Actual Average Record
Temperature  
Mean Temperature 50 °F -  
Max Temperature 69 °F 58 °F 78 °F (1936)
Min Temperature 32 °F 36 °F 13 °F (1969)
Degree Days  
Heating Degree Days 14    
Moisture  
Dew Point 40 °F    
Average Humidity 81    
Maximum Humidity 100    
Minimum Humidity 45    
Precipitation  
Precipitation 0.00 in - - ()
Sea Level Pressure  
Sea Level Pressure 30.13 in    
Wind  
Wind Speed 1 mph (SW)    
Max Wind Speed 12 mph    
Max Gust Speed 17 mph    
Visibility 8 miles    
Events Fog , Rain    
Averages and records for this station are not official NWS values.
T = Trace of Precipitation, MM = Missing Value Source: NWS Daily Summary

Daily Weather History Graph

Daily Weather History Graph

Search for Another Location

Airport:

Trip Planner

Search our weather history database for the weather conditions in past years. The results will help you decide how hot, cold, wet, or windy it might be!

Date:

Astronomy

Jan. 06, 2012 Rise Set
Actual Time 6:47 AM CST 4:57 PM CST
Civil Twilight 6:20 AM CST 5:23 PM CST
Nautical Twilight 5:50 AM CST 5:54 PM CST
Astronomical Twilight 5:20 AM CST 6:23 PM CST
Moon 2:48 PM CST (1/6) 4:25 AM CST (1/6)
Length of Visible Light 11h 03m
Length of Day
10h 09m
Waxing Gibbous, 93% of the Moon is Illuminated
Jan 6
Waxing Gibbous
Jan 9
Full
Jan 16
Last Quarter
Jan 23
New
Jan 30
First Quarter

Hourly Weather History & Observations

Time (CST) Temp. Dew Point Humidity Pressure Visibility Wind Dir Wind Speed Gust Speed Precip Events Conditions
12:56 AM 36.0 °F 32.0 °F 86% 30.14 in 10.0 mi Calm Calm - N/A   Clear
1:56 AM 36.0 °F 32.0 °F 86% 30.13 in 10.0 mi Calm Calm - N/A   Clear
2:56 AM 33.1 °F 30.0 °F 89% 30.13 in 10.0 mi Calm Calm - N/A   Clear
3:56 AM 33.1 °F 30.0 °F 89% 30.13 in 10.0 mi Calm Calm - N/A   Clear
4:56 AM 33.1 °F 30.0 °F 89% 30.14 in 10.0 mi Calm Calm - N/A   Clear
5:56 AM 32.0 °F 28.9 °F 88% 30.16 in 10.0 mi Calm Calm - N/A   Clear
6:20 AM 32.0 °F 28.9 °F 88% 30.16 in 10.0 mi Calm Calm - N/A   Scattered Clouds
6:28 AM 32.0 °F 28.9 °F 88% 30.16 in 10.0 mi Calm Calm - N/A   Mostly Cloudy
6:37 AM 33.1 °F 30.0 °F 89% 30.16 in 1.5 mi Calm Calm - N/A   Overcast
6:45 AM 32.0 °F 30.9 °F 96% 30.16 in 0.2 mi Calm Calm - 0.00 in Fog , Rain Light Rain
6:56 AM 32.0 °F 30.9 °F 96% 30.16 in 0.2 mi Calm Calm - 0.00 in Fog Fog
7:37 AM 33.1 °F 33.1 °F 100% 30.17 in 1.5 mi Calm Calm - N/A   Scattered Clouds
7:40 AM 34.0 °F 33.1 °F 96% 30.17 in 3.0 mi Calm Calm - N/A   Partly Cloudy
7:56 AM 37.0 °F 35.1 °F 93% 30.18 in 2.5 mi Calm Calm - N/A   Clear
8:05 AM 37.9 °F 37.0 °F 97% 30.18 in 6.0 mi Calm Calm - N/A   Clear
8:56 AM 46.9 °F 42.1 °F 83% 30.20 in 10.0 mi Calm Calm - N/A   Clear
9:56 AM 60.1 °F 46.0 °F 60% 30.20 in 10.0 mi WSW 4.6 mph - N/A   Clear
10:56 AM 66.9 °F 46.0 °F 47% 30.17 in 10.0 mi West 5.8 mph - N/A   Clear
11:56 AM 69.1 °F 48.0 °F 47% 30.13 in 10.0 mi West 11.5 mph 17.3 mph N/A   Partly Cloudy
12:56 PM 69.1 °F 46.9 °F 45% 30.11 in 10.0 mi NNW 5.8 mph - N/A   Mostly Cloudy
1:56 PM 68.0 °F 48.0 °F 49% 30.09 in 10.0 mi Calm Calm - N/A   Partly Cloudy
2:56 PM 68.0 °F 48.0 °F 49% 30.09 in 10.0 mi WSW 4.6 mph - N/A   Clear
4:56 PM 64.0 °F 50.0 °F 60% 30.09 in 10.0 mi SSW 3.5 mph - N/A   Clear
5:56 PM 57.9 °F 50.0 °F 75% 30.10 in 10.0 mi Calm Calm - N/A   Clear
6:56 PM 55.0 °F 50.0 °F 83% 30.10 in 10.0 mi Calm Calm - N/A   Clear
7:56 PM 51.1 °F 48.0 °F 89% 30.09 in 10.0 mi South 4.6 mph - N/A   Clear
8:56 PM 55.0 °F 50.0 °F 83% 30.09 in 10.0 mi South 3.5 mph - N/A   Clear
9:56 PM 53.1 °F 50.0 °F 89% 30.08 in 10.0 mi South 3.5 mph - N/A   Clear
10:56 PM 51.1 °F 50.0 °F 96% 30.07 in 9.0 mi South 3.5 mph - N/A   Clear
11:56 PM 51.1 °F 48.9 °F 92% 30.08 in 3.0 mi Calm Calm - N/A   Clear